Jackpot

Texas Poker Multi Jackpot System

Kini Telah hadir Jackpot SUPER ROYAL FLUSH

Kini Telah hadir Jackpot 2000 (khusus table VIP keatas).

Ikutilah global jackpot yang tersedia di system kami, dengan system jackpot terbaru dan pertama di indonesia, anda dapat membeli jackpot dengan harga 100 rupiah saja dan menangkan hadiahnya hingga puluhan juta rupiah.

Jackpot bukanlah suatu keharusan untuk dibeli, namun kami memberikan suatu fitur tambahan untuk member tercinta dari www.wazepoker.com.

Terdapat tiga pilihan harga jackpot yang bisa anda beli yaitu :100,500,1000 dan 2000(khusus table VIP Keatas) rupiah.

Hadiah dari Multi jackpot system www.wazepoker.com

  1. full house x 10 harga jackpot yang anda beli.
      (contoh:anda membeli 1000 maka:1000 X10 = 10.000)
  2. four of kind x 250 harga jackpot yang anda beli
      (contoh:anda membeli 1000 maka:1000 X250 = 250.000)
  3. Straight flush x 1200
      (contoh:anda membeli 1000 maka:1000 X1200 = 1.200.000)
  4. Royal flush x 10000 harga jackpot yang anda beli
      (contoh:anda membeli 1000 maka:1000 X10000 = 10.000.000)
  5. SUPER ROYAL FLUSH x 30000 harga jackpot yang anda beli
      (contoh:anda membeli 1000 maka:1000 X30000 = 30.000.000)

Kondisi kartu

  1. full house adalah kondisi kartu dimana kartu anda dan kartu tengah dengan total 7 kartu bisa mendapatkan nilai 5 kartu dengan kombinasi 1 tris(three of kind) dan 1 pair, contoh 3 kartu 10 dan 2 kartu 5
  2. Four of kind adalah kondisi kartu dimana kartu anda dan kartu tengah dengan total 7 kartu bisa mendapatkan nilai 5 kartu dengan kombinasi 4 kartu yang sama jumlah dan 1 kartu apapun juga contoh anda mendapatkan 4 buah kartu angka 3 dan 1 kartu apapun.
  3. Staright flush adalah kondisi kartu dimana kartu anda dan kartu tengah dengan total 7 kartu bisa mendapatkan nilai 5 kartu dengan kombinasi seri / staright dengan kembang yang sama contoh : urutan kartu dari angka 5, 6, 7, 8 , 9 10 dengan kembang yg sama misalnya as hati
  4. Royal flush adalah kondisi kartu dimana kartu anda dan kartu tengah dengan total 7 kartu bisa mendapatkan nilai 5 kartu dengan kombinasi seri / staright dengan kembang yang sama tetapi kartu tersebut haruslah dimulai dari 10. contoh 10, Queen, Jack, King dan aces dengan kembang yang sama
  5. Super Royal flush adalah kondisi kartu dimana Kedua kartu anda digabung dengan 3 kartu pertama meja haruslah royal flush. contoh kartu anda 10,Queen kembang sama dan 3 kartu pertama meja adalah Jack, King dan aces dengan kembang yang sama

Demikian adalah penjelasan dari Multi Jackpot www.wazepoker.com terima kasih dan selamat bermain salam hoki dari kami

Texas Poker Jackpot Winner

TOP SUPER ROYAL FLUSH
No.TanggalNamaPriceWin
119/06 22:51XK4MI2Super Royal flush3,000,000
219/06 22:24WINNER888Super Royal flush15,000,000
319/06 22:05F8A6BAF1Super Royal flush6,000,000
419/06 19:56ONANI026Super Royal flush6,000,000
519/06 19:21TUDDINSuper Royal flush6,000,000
TOP ROYAL FLUSH
No.TanggalNamaPriceWin
120/06 00:34DIAZZYASINRoyal flush5,000,000
220/06 00:13WARISOJORoyal flush1,000,000
320/06 00:10NGAHTUNGAURoyal flush2,000,000
419/06 23:50ANARKII99Royal flush5,000,000
519/06 23:49NANANG012Royal flush5,000,000
TOP STRAIGHT FLUSH
No.TanggalNamaPriceWin
120/06 00:38DEWA3737Straight Flush600,000
220/06 00:36NYONYON99Straight Flush240,000
320/06 00:36IBENK_23Straight Flush240,000
420/06 00:36BOSBAIMStraight Flush120,000
520/06 00:31CELY2828Straight Flush1,200,000
LATEST JACKPOT
No.TanggalNamaPriceWin
120/06 00:38LONT39Full House2,000
220/06 00:38MV249179Full House5,000
320/06 00:38KILONK21Full House10,000
420/06 00:38ADECKPABFull House2,000
520/06 00:38D8B65091Full House2,000
620/06 00:38ERO007Full House1,000
720/06 00:38TEMPURA_99Full House2,000
820/06 00:38CATOK0110Full House2,000
920/06 00:38PTTTWH92U0Full House5,000
1020/06 00:38ROLOK23Full House2,000
1120/06 00:38MASIH24Full House2,000
1220/06 00:38JOZZZ9999Full House2,000
1320/06 00:38KORANDULUFull House5,000
1420/06 00:38DEWA3737Straight Flush600,000
1520/06 00:38CHUAN_Full House2,000
1620/06 00:38HADIETYA24Full House5,000
1720/06 00:38AQUAADPFull House10,000
1820/06 00:38KOLOMBENGFull House5,000
1920/06 00:38DAFFA2010Full House2,000
2020/06 00:38SAMBERBAEFull House5,000
2120/06 00:38AAA4599BFull House5,000
2220/06 00:38O_YES55555Full House10,000
2320/06 00:38CRUUUTTTFull House20,000
2420/06 00:38FADI09Full House2,000
2520/06 00:38NOYA008Full House2,000
2620/06 00:38JAENAB69Four Of A Kind12,500
2720/06 00:38MACAN1890Four Of A Kind125,000
2820/06 00:38E4M838OKE1Full House2,000
2920/06 00:38TUANQFull House10,000
3020/06 00:38UNJATANUFull House5,000
3120/06 00:38ZOSZOS99Full House2,000
3220/06 00:38SCHATZI26Four Of A Kind50,000
3320/06 00:38IINDOETFull House20,000
3420/06 00:38SRIEL_AZFull House1,000
3520/06 00:38KINA010175Full House1,000
3620/06 00:38MMIIMMFour Of A Kind250,000
3720/06 00:38ADERAHMAT8Full House10,000
3820/06 00:38RA2501Full House1,000
3920/06 00:38S4NGH14NGFull House2,000
4020/06 00:38MANIS211Full House2,000
4120/06 00:38ALFITRA1Four Of A Kind125,000
4220/06 00:38ZULHAM2509Full House2,000
4320/06 00:38PAKKORUS75Full House2,000
4420/06 00:38BRORIC17Full House2,000
4520/06 00:38SUPER2207Full House2,000
4620/06 00:38RYAN42Full House10,000
4720/06 00:38ZIZI45Full House5,000
4820/06 00:38J4Y4SLLUFull House5,000
4920/06 00:38GNBY99Full House1,000
5020/06 00:38OPEN666Full House1,000

Domino Multi Jackpot System

Ikutilah global jackpot yang tersedia di system kami, dengan system jackpot terbaru dan pertama di indonesia, anda dapat membeli jackpot dengan harga 100 rupiah saja dan menangkan hadiahnya hingga puluhan juta rupiah.

Jackpot bukanlah suatu keharusan untuk dibeli, namun kami memberikan suatu fitur tambahan untuk member tercinta dari www.wazepoker.com.

Terdapat tiga pilihan harga jackpot yang bisa anda beli yaitu :100,500 dan 1000 rupiah.

Hadiah dari Multi jackpot system www.wazepoker.com

  1. Murni Kecil x 50 harga jackpot yang anda beli.
      (contoh:anda membeli 1000 maka:1000 X 50 = 50.000)
  2. Murni Besar x 50 harga jackpot yang anda beli
      (contoh:anda membeli 1000 maka:1000 X 50 = 50.000)
  3. BALAK x 100 harga jackpot yang anda beli
      (contoh:anda membeli 1000 maka:1000 X 100 = 100.000)
  4. ENAM DEWA x 6666 harga jackpot yang anda beli
      (contoh:anda membeli 1000 maka:1000 X 6666 = 6.666.000)

Demikian adalah penjelasan dari Multi Jackpot www.wazepoker.com terima kasih dan selamat bermain salam hoki dari kami

Domino Jackpot Winner

TOP ENAM DEWA
No.TanggalNamaPriceWin
120/06 00:15EVRIT01murni enam3,333,000
219/06 23:47SOLONG85murni enam3,333,000
319/06 22:17MF92murni enam666,600
419/06 22:07SEHAH66murni enam3,333,000
519/06 15:29JEEG99murni enam666,600
TOP BALAK
No.TanggalNamaPriceWin
120/06 00:36EMWE0917balak50,000
220/06 00:30WITHDRAWNPbalak10,000
320/06 00:26VIANAL10balak50,000
420/06 00:23LULU29balak50,000
520/06 00:23EB5CBA08balak100,000
LATEST JACKPOT
No.TanggalNamaPriceWin
120/06 00:38UCING_66murni kecil25,000
220/06 00:38P4RTI99murni besar25,000
320/06 00:38FARHANA117lucky9910,000
420/06 00:37BALON6120murni besar25,000
520/06 00:37EMANEKOKmurni kecil50,000
620/06 00:37MIKO_Rmurni kecil25,000
720/06 00:36ARNITA77murni kecil25,000
820/06 00:36ZAKI678murni besar50,000
920/06 00:36EMWE0917balak50,000
1020/06 00:35FKCKC923murni kecil50,000
1120/06 00:35SIDIKGUNlucky9910,000
1220/06 00:35BONK_1799murni kecil25,000
1320/06 00:34ANDRIANNOOmurni kecil25,000
1420/06 00:34SEHAH66murni kecil50,000
1520/06 00:33B5D11murni kecil50,000
1620/06 00:33X9XOXO9Xmurni kecil50,000
1720/06 00:33H5V2B3A5RLmurni kecil5,000
1820/06 00:33SAUDIKJImurni besar50,000
1920/06 00:32RENGET2000murni kecil50,000
2020/06 00:32DWBTUSEI45murni besar50,000
2120/06 00:31MIKO_Rmurni kecil25,000
2220/06 00:31FURIOUSQQmurni kecil25,000
2320/06 00:31ALARKHAN22murni besar5,000
2420/06 00:31JEHANUmurni besar50,000
2520/06 00:31DMGIMAB9NFmurni besar5,000
2620/06 00:31ALOY009murni besar5,000
2720/06 00:31SMOKE455murni kecil50,000
2820/06 00:30UCING_66murni kecil5,000
2920/06 00:30WITHDRAWNPbalak10,000
3020/06 00:30JANJI303murni besar25,000
3120/06 00:30SHIER06murni kecil50,000
3220/06 00:30PRASTYO06lucky9910,000
3320/06 00:29RIZALFATHOmurni besar5,000
3420/06 00:29ENDRR008lucky992,500
3520/06 00:27LIADI53lucky9925,000
3620/06 00:27SAUDIKJImurni besar50,000
3720/06 00:26VIANAL10balak50,000
3820/06 00:25DOMINO228murni besar50,000
3920/06 00:25SIOSEPADANmurni besar50,000
4020/06 00:25DOA__IBUmurni besar50,000
4120/06 00:24FIGHTERJR2murni besar50,000
4220/06 00:24ZAKI678murni besar50,000
4320/06 00:23BEKAS91_murni kecil5,000
4420/06 00:23LULU29balak50,000
4520/06 00:23EB5CBA08balak100,000
4620/06 00:23ONDEL012murni kecil5,000
4720/06 00:23UJANG172murni kecil25,000
4820/06 00:22TARAUPmurni besar50,000
4920/06 00:22BENCOTTmurni kecil25,000
5020/06 00:22RAMWINmurni kecil5,000

Ceme Multi Jackpot System

Jackpot dilihat dari gabungan kartu pemain dengan kartu bandar. Bandar harus membeli jackpot sebanyak jumlah player yang sedang duduk. Sebagai contoh bila terdapat 3 pemain duduk bermain, dan bandar memutuskan untuk membeli jackpot Rp 1.000, maka pada periode tersebut bandar akan membeli jackpot sebanyak 3xRp1.000 = Rp3.000.

Jackpot bukanlah suatu keharusan untuk dibeli, namun kami memberikan suatu fitur tambahan untuk member tercinta dari www.wazepoker.com.

Terdapat tiga pilihan harga jackpot yang bisa anda beli yaitu :100,500 dan 1000 rupiah.

Hadiah dari Multi jackpot system www.wazepoker.com

  1. Murni Kecil x 50 harga jackpot yang anda beli.
      (contoh:anda membeli 1000 maka:1000 X 50 = 50.000)
  2. Murni Besar x 50 harga jackpot yang anda beli
      (contoh:anda membeli 1000 maka:1000 X 50 = 50.000)
  3. BALAK x 200 harga jackpot yang anda beli
      (contoh:anda membeli 1000 maka:1000 X 200 = 200.000)
  4. ENAM DEWA x 6666 harga jackpot yang anda beli
      (contoh:anda membeli 1000 maka:1000 X 6666 = 6.666.000)

Demikian adalah penjelasan dari Multi Jackpot www.wazepoker.com terima kasih dan selamat bermain salam hoki dari kami

Ceme Jackpot Winner

TOP ENAM DEWA
No.TanggalNamaPriceWin
120/06 00:18MERCOOONmurni enam6,666,000
220/06 00:11ZZIIIEEEmurni enam3,333,000
320/06 00:11IDNPRO120murni enam666,600
420/06 00:00ZELLO110murni enam3,333,000
519/06 23:59EWSBANGOmurni enam3,333,000
TOP BALAK
No.TanggalNamaPriceWin
120/06 00:38TATAK23balak100,000
220/06 00:37BOELOE22balak200,000
320/06 00:37DR7DTAUFIKbalak200,000
420/06 00:37RICE01balak20,000
520/06 00:36NINIBULANGbalak200,000
LATEST JACKPOT
No.TanggalNamaPriceWin
120/06 00:38PMTEKmurni kecil50,000
220/06 00:38DEDIGUMBAKmurni kecil50,000
320/06 00:38TATAK23balak100,000
420/06 00:38JKT99POKERmurni kecil5,000
520/06 00:38S3LUMENANGmurni kecil50,000
620/06 00:38REJEKI_128murni kecil50,000
720/06 00:38ONYONYmurni kecil50,000
820/06 00:38GOWIN3333murni kecil5,000
920/06 00:38NANTA17murni kecil25,000
1020/06 00:38PLATI23murni kecil25,000
1120/06 00:38ASKUUYYYmurni besar50,000
1220/06 00:37RAJABATREmurni besar25,000
1320/06 00:37SIBORIL07murni besar25,000
1420/06 00:37KOSLET2murni kecil50,000
1520/06 00:37RINDA27murni kecil50,000
1620/06 00:37TRISUSULOmurni kecil25,000
1720/06 00:37ASK110murni kecil50,000
1820/06 00:37HANIFA9murni besar25,000
1920/06 00:37COKINHOKImurni kecil50,000
2020/06 00:37KRIWIL56murni besar25,000
2120/06 00:37BOELOE22balak200,000
2220/06 00:37DR7DTAUFIKbalak200,000
2320/06 00:37RICE01balak20,000
2420/06 00:36MUJI16murni kecil50,000
2520/06 00:36PSIDAURUKmurni kecil5,000
2620/06 00:36S05P4O4A59murni besar25,000
2720/06 00:36DHAN98murni kecil50,000
2820/06 00:36PPKCNG01murni kecil25,000
2920/06 00:36NINIBULANGbalak200,000
3020/06 00:36MOT0229murni besar5,000
3120/06 00:36RAJAB0SSmurni besar25,000
3220/06 00:36C022E0E1murni kecil50,000
3320/06 00:36BLEK66murni kecil5,000
3420/06 00:36PODOK889murni besar50,000
3520/06 00:36JCKPT6666murni besar25,000
3620/06 00:36SAPIKUDA12murni besar5,000
3720/06 00:36JCKPT6666murni besar25,000
3820/06 00:36A2UKH4murni besar50,000
3920/06 00:36MENWDmurni kecil50,000
4020/06 00:35VICKY989murni besar50,000
4120/06 00:35DVLB90murni kecil5,000
4220/06 00:35AS45ASmurni besar25,000
4320/06 00:35RIDHA123murni besar50,000
4420/06 00:35CJ67070murni kecil25,000
4520/06 00:35UPESCXSFNSbalak200,000
4620/06 00:35JAKA5000murni besar5,000
4720/06 00:35ADITXmurni kecil50,000
4820/06 00:35UPSS15murni kecil50,000
4920/06 00:35GUSTH3Ymurni kecil50,000
5020/06 00:35RAI77murni kecil5,000